Lyndonville, VT

3:42 PM EST on January 16, 2018 (GMT -0500)
Lyndonville

Weather History for KCDA - April, 2013

Change the Weather History Date:

Sunday, April 7, 2013

  Actual Average (K1V4) Record (K1V4)
Temperature  
Mean Temperature 38 °F -  
Max Temperature 52 °F 45 °F 81 °F (1991)
Min Temperature 24 °F 26 °F 9 °F (1982)
Degree Days  
Heating Degree Days 27    
Moisture  
Dew Point 14 °F    
Average Humidity 38    
Maximum Humidity 62    
Minimum Humidity 21    
Precipitation  
Precipitation 0.00 in - - ()
Sea Level Pressure  
Sea Level Pressure 30.02 in    
Wind  
Wind Speed 7 mph (South)    
Max Wind Speed 25 mph    
Max Gust Speed 32 mph    
Visibility 10 miles    
Events Rain    
Averages and records for this station are not official NWS values.
T = Trace of Precipitation, MM = Missing Value Source: NWS Daily Summary

Daily Weather History Graph

Daily Weather History Graph

Search for Another Location

Airport or City:

Trip Planner

Search our weather history database for the weather conditions in past years. The results will help you decide how hot, cold, wet, or windy it might be!

Date:

Astronomy

Apr. 07, 2013 Rise Set
Actual Time 6:17 AM EDT 7:23 PM EDT
Civil Twilight 5:47 AM EDT 7:53 PM EDT
Nautical Twilight 5:12 AM EDT 8:28 PM EDT
Astronomical Twilight 4:34 AM EDT 9:06 PM EDT
Moon 4:39 AM EDT (4/7) 4:47 PM EDT (4/7)
Length of Visible Light 14h 05m
Length of Day
13h 05m
Waning Crescent, 8% of the Moon is Illuminated
Apr 7
Waning Crescent
Apr 10
New
Apr 18
First Quarter
Apr 25
Full
May 2
Last Quarter

Hourly Weather History & Observations

Time (EDT) Temp. Windchill Dew Point Humidity Pressure Visibility Wind Dir Wind Speed Gust Speed Precip Events Conditions
12:15 AM 25.3 °F - 9.0 °F 50% 30.26 in 10.0 mi Calm Calm - N/A   Clear
12:35 AM 24.8 °F - 8.4 °F 50% 30.26 in 10.0 mi Calm Calm - N/A   Clear
12:55 AM 25.5 °F - 7.7 °F 47% 30.26 in 10.0 mi Calm Calm - N/A   Mostly Cloudy
1:15 AM 25.7 °F - 13.3 °F 59% 30.26 in 10.0 mi Calm Calm - N/A   Overcast
1:35 AM 25.7 °F - 12.2 °F 57% 30.25 in 10.0 mi Calm Calm - N/A   Overcast
1:55 AM 26.6 °F - 11.5 °F 53% 30.23 in 10.0 mi Calm Calm - N/A   Overcast
2:15 AM 26.4 °F - 13.6 °F 59% 30.23 in 10.0 mi Calm Calm - N/A   Overcast
2:35 AM 26.2 °F 22.1 °F 11.5 °F 54% 30.21 in 10.0 mi ENE 3.5 mph - N/A   Overcast
2:55 AM 25.7 °F - 10.6 °F 53% 30.20 in 10.0 mi Calm Calm - N/A   Overcast
3:15 AM 25.7 °F - 14.4 °F 62% 30.20 in 10.0 mi Calm Calm - N/A   Overcast
3:35 AM 26.6 °F - 11.1 °F 52% 30.19 in 10.0 mi Calm Calm - N/A   Overcast
3:55 AM 26.8 °F - 7.2 °F 44% 30.18 in 10.0 mi Calm Calm - N/A   Overcast
4:15 AM 26.6 °F - 8.4 °F 46% 30.18 in 10.0 mi Calm Calm - N/A   Overcast
4:35 AM 26.4 °F - 14.7 °F 61% 30.17 in 10.0 mi Calm Calm - N/A   Overcast
4:55 AM 27.3 °F 23.4 °F 9.5 °F 47% 30.17 in 10.0 mi South 3.5 mph - N/A   Overcast
5:15 AM 27.9 °F 24.0 °F 8.6 °F 44% 30.17 in 10.0 mi South 3.5 mph - N/A   Overcast
5:35 AM 28.9 °F 22.8 °F 5.9 °F 38% 30.16 in 10.0 mi South 5.8 mph - N/A   Overcast
5:55 AM 28.8 °F 22.6 °F 6.8 °F 40% 30.18 in 10.0 mi South 5.8 mph - N/A   Overcast
6:15 AM 29.1 °F 23.0 °F 6.3 °F 38% 30.18 in 10.0 mi SSE 5.8 mph - N/A   Overcast
6:35 AM 29.3 °F 22.3 °F 5.9 °F 37% 30.19 in 10.0 mi South 6.9 mph - N/A   Overcast
6:55 AM 29.8 °F 22.2 °F 5.2 °F 35% 30.17 in 10.0 mi SE 8.1 mph - N/A   Overcast
7:15 AM 30.2 °F 22.6 °F 5.9 °F 36% 30.18 in 10.0 mi SSE 8.1 mph - N/A   Overcast
7:35 AM 31.1 °F 25.4 °F 5.9 °F 35% 30.18 in 10.0 mi South 5.8 mph - N/A   Overcast
7:55 AM 31.6 °F 23.1 °F 4.6 °F 32% 30.18 in 10.0 mi South 10.4 mph 16.1 mph N/A   Overcast
8:15 AM 32.4 °F 23.5 °F 2.8 °F 29% 30.16 in 10.0 mi South 11.5 mph 19.6 mph N/A   Overcast
8:35 AM 33.3 °F 25.7 °F 1.9 °F 27% 30.13 in 10.0 mi SSE 9.2 mph 19.6 mph N/A   Overcast
8:55 AM 33.3 °F 27.9 °F 6.4 °F 32% 30.13 in 10.0 mi SSE 5.8 mph - N/A Rain Light Rain
9:15 AM 33.6 °F 30.6 °F 9.3 °F 36% 30.10 in 10.0 mi SE 3.5 mph - N/A Rain Light Rain
9:35 AM 35.2 °F 29.5 °F 9.9 °F 35% 30.09 in 10.0 mi South 6.9 mph - N/A   Overcast
9:55 AM 37.2 °F 30.0 °F 9.5 °F 32% 30.07 in 10.0 mi South 10.4 mph 16.1 mph N/A   Overcast
10:15 AM 39.4 °F 31.4 °F 9.5 °F 29% 30.06 in 10.0 mi South 13.8 mph 18.4 mph N/A   Overcast
10:35 AM 40.8 °F 32.3 °F 8.8 °F 27% 30.05 in 10.0 mi South 17.3 mph 25.3 mph N/A   Overcast
10:55 AM 40.6 °F 30.2 °F 9.5 °F 28% 30.05 in 10.0 mi SSE 25.3 mph 32.2 mph N/A   Overcast
11:15 AM 40.5 °F 30.2 °F 10.2 °F 29% 30.05 in 10.0 mi SSE 24.2 mph 32.2 mph N/A   Mostly Cloudy
11:35 AM 40.6 °F 32.0 °F 10.6 °F 29% 30.04 in 10.0 mi South 17.3 mph 24.2 mph N/A   Mostly Cloudy
11:55 AM 41.2 °F 31.4 °F 11.5 °F 30% 30.02 in 10.0 mi South 23.0 mph 28.8 mph N/A   Mostly Cloudy
12:15 PM 41.0 °F 31.9 °F 12.2 °F 31% 30.00 in 10.0 mi South 19.6 mph 26.5 mph N/A   Mostly Cloudy
12:35 PM 41.5 °F 33.5 °F 12.9 °F 31% 29.99 in 10.0 mi South 16.1 mph 27.6 mph N/A   Overcast
12:55 PM 42.1 °F 34.2 °F 12.9 °F 31% 29.97 in 10.0 mi SSE 16.1 mph 27.6 mph N/A   Overcast
1:15 PM 46.2 °F 40.1 °F 14.0 °F 27% 29.96 in 10.0 mi South 13.8 mph 24.2 mph N/A   Mostly Cloudy
1:35 PM 47.5 °F - 14.0 °F 26% 29.95 in 10.0 mi South 18.4 mph 27.6 mph N/A   Scattered Clouds
1:55 PM 47.7 °F - 13.8 °F 26% 29.94 in 10.0 mi South 18.4 mph 29.9 mph N/A   Clear
2:15 PM 48.7 °F - 13.5 °F 24% 29.92 in 10.0 mi South 13.8 mph 32.2 mph N/A   Clear
2:35 PM 50.5 °F - 13.3 °F 23% 29.89 in 10.0 mi SSE 18.4 mph 27.6 mph N/A   Clear
2:55 PM 50.5 °F - 13.1 °F 22% 29.87 in 10.0 mi South 21.9 mph 32.2 mph N/A   Scattered Clouds
3:15 PM 51.8 °F - 12.7 °F 21% 29.86 in 10.0 mi South 21.9 mph 32.2 mph N/A   Scattered Clouds
3:35 PM 51.3 °F - 12.4 °F 21% 29.87 in 10.0 mi South 15.0 mph 27.6 mph N/A   Mostly Cloudy
3:55 PM 50.9 °F - 12.0 °F 21% 29.87 in 10.0 mi South 12.7 mph 23.0 mph N/A   Overcast
4:15 PM 50.9 °F - 12.7 °F 22% 29.88 in 10.0 mi South 13.8 mph 19.6 mph N/A   Overcast
4:35 PM 50.9 °F - 13.1 °F 22% 29.87 in 10.0 mi South 13.8 mph 19.6 mph N/A   Overcast
4:55 PM 51.1 °F - 14.9 °F 24% 29.88 in 10.0 mi South 8.1 mph 19.6 mph N/A   Overcast
5:15 PM 50.9 °F - 16.9 °F 26% 29.89 in 10.0 mi South 10.4 mph - N/A   Overcast
5:35 PM 51.1 °F - 21.4 °F 31% 29.87 in 10.0 mi South 18.4 mph 28.8 mph N/A   Overcast
5:55 PM 51.3 °F - 22.8 °F 33% 29.87 in 10.0 mi South 15.0 mph 23.0 mph N/A   Mostly Cloudy
6:15 PM 52.3 °F - 23.7 °F 33% 29.86 in 10.0 mi South 12.7 mph 24.2 mph N/A   Scattered Clouds
6:55 PM 50.0 °F - 22.1 °F 33% 29.86 in 10.0 mi South 11.5 mph 18.4 mph N/A   Clear
7:15 PM 50.2 °F - 23.4 °F 35% 29.86 in 10.0 mi South 10.4 mph - N/A   Mostly Cloudy
7:35 PM 49.6 °F - 24.3 °F 37% 29.85 in 10.0 mi South 12.7 mph 20.7 mph N/A   Mostly Cloudy
7:55 PM 49.6 °F - 24.4 °F 37% 29.84 in 10.0 mi South 16.1 mph 27.6 mph N/A   Mostly Cloudy
8:15 PM 49.1 °F - 24.8 °F 39% 29.85 in 10.0 mi South 10.4 mph 21.9 mph N/A   Mostly Cloudy
8:35 PM 49.1 °F - 26.1 °F 41% 29.85 in 10.0 mi South 17.3 mph 26.5 mph N/A   Mostly Cloudy
8:55 PM 48.4 °F - 26.6 °F 43% 29.85 in 10.0 mi South 15.0 mph 24.2 mph N/A   Mostly Cloudy
9:15 PM 47.8 °F - 27.1 °F 45% 29.85 in 10.0 mi South 17.3 mph 25.3 mph N/A   Mostly Cloudy
9:35 PM 47.5 °F - 27.5 °F 46% 29.85 in 10.0 mi South 11.5 mph 24.2 mph N/A   Mostly Cloudy
9:55 PM 47.1 °F - 28.2 °F 48% 29.86 in 10.0 mi South 16.1 mph 28.8 mph N/A   Overcast
10:15 PM 46.6 °F - 28.4 °F 49% 29.85 in 10.0 mi South 16.1 mph 26.5 mph N/A   Overcast
10:35 PM 46.0 °F 41.0 °F 28.4 °F 50% 29.86 in 10.0 mi South 10.4 mph 19.6 mph N/A   Overcast
10:55 PM 45.5 °F 41.8 °F 28.8 °F 52% 29.86 in 10.0 mi South 6.9 mph - N/A   Overcast
11:15 PM 44.8 °F 41.0 °F 29.1 °F 54% 29.86 in 10.0 mi SSW 6.9 mph - N/A   Overcast
11:35 PM 44.8 °F 40.4 °F 29.3 °F 55% 29.87 in 10.0 mi SSW 8.1 mph - N/A   Overcast
11:55 PM 44.6 °F 43.1 °F 30.0 °F 57% 29.87 in 10.0 mi South 3.5 mph - N/A   Overcast